Wind_Speed
6 6 5 4 4 4 4 5 7 7 7 7 6 4 2 2 3 5 7 8 9 10 11 11 11 11 10 10 9 8 6 5 4 3 2 2 3 3 4 5 5 6 7 8 9 10 10 9 7
8 8 8 7 7 7 6 7 7 8 9 8 7 6 4 3 3 5 6 8 9 10 11 12 12 12 11 10 10 9 8 6 5 4 3 3 4 4 5 6 6 6 6 7 7 8 9 8 7
10 10 11 10 10 9 8 8 8 8 9 9 8 8 6 6 5 6 7 8 10 12 13 14 13 13 12 11 10 10 9 8 7 7 6 6 7 7 7 8 8 8 8 8 7 7 7 7 6
12 13 13 12 13 12 11 11 10 10 9 8 8 8 7 7 8 8 9 10 11 12 13 14 14 13 12 11 10 10 10 10 10 10 10 11 11 11 11 11 12 12 11 11 10 9 8 8 7
15 15 15 15 15 14 14 14 13 12 11 8 7 7 7 8 8 9 10 10 10 12 13 13 12 11 11 11 11 12 12 13 13 13 14 15 15 15 15 15 15 15 15 15 14 13 12 11 10
17 17 17 17 18 17 17 16 16 14 12 9 7 7 7 7 7 8 9 10 10 11 12 12 12 12 12 13 13 14 14 15 16 16 17 17 18 18 19 19 19 19 19 18 18 18 17 16 15
19 19 19 19 20 20 20 19 18 17 14 10 7 7 7 7 6 7 8 9 11 12 13 14 14 15 15 16 16 16 17 17 17 18 18 19 20 21 21 21 21 21 22 22 22 22 21 21 19
21 21 20 21 21 23 23 22 21 18 15 11 9 8 8 8 8 8 8 9 12 14 15 16 17 18 19 20 20 20 20 20 20 20 20 20 21 22 23 23 23 24 24 24 25 25 25 25 24
22 22 21 23 24 25 25 24 23 21 17 14 11 9 9 9 9 10 10 12 14 17 18 19 20 21 23 23 24 24 24 24 24 23 22 22 22 22 23 24 24 25 25 25 26 26 27 27 26
22 22 22 26 27 27 27 26 25 23 21 18 15 13 13 13 13 13 13 15 18 20 22 23 24 25 26 28 28 29 29 29 28 27 25 24 24 23 23 24 24 25 25 25 25 26 27 27 27
21 20 22 26 28 28 28 28 27 26 24 21 18 17 17 17 17 18 18 20 21 23 25 27 28 29 30 32 32 33 34 33 32 30 29 27 25 24 24 25 25 25 25 25 25 26 26 26 27
20 20 21 24 28 30 30 30 30 29 26 24 22 22 22 21 21 21 22 23 25 26 28 29 31 32 33 35 36 37 35 35 35 35 32 30 28 26 26 26 26 26 26 26 26 26 26 25 25
21 20 20 21 26 29 31 32 33 31 29 28 26 26 26 25 25 24 24 25 27 29 30 31 33 34 34 36 36 37 37 37 38 38 36 33 30 28 28 27 27 27 26 26 27 27 26 25 25
21 20 21 23 26 28 30 31 33 33 32 32 31 30 30 30 28 27 27 27 29 30 32 33 35 37 37 37 38 37 37 40 42 40 38 35 33 31 29 28 27 27 27 27 27 27 27 26 25
21 21 22 24 26 27 29 30 31 31 32 34 34 32 32 30 28 28 28 29 31 32 33 36 38 37 38 39 39 38 39 38 40 42 42 39 37 33 31 29 28 27 27 27 27 27 27 27 25
20 21 23 24 25 25 26 27 27 29 30 32 32 31 30 29 29 29 30 32 34 35 36 39 40 38 38 39 38 39 39 39 39 41 42 39 37 34 31 29 28 27 26 26 27 27 27 26 25
20 20 22 23 24 24 23 23 22 23 25 27 28 28 28 28 29 31 33 35 37 38 39 40 40 38 38 39 39 39 40 37 37 37 38 38 36 32 30 30 29 26 25 25 26 26 26 25 25
18 19 21 22 22 22 21 20 19 19 21 23 25 27 28 30 32 34 36 38 39 39 40 40 40 38 38 39 40 39 38 34 31 31 34 33 34 31 30 29 28 27 25 25 25 25 24 24 24
18 18 19 21 21 21 20 19 19 19 21 23 25 28 30 33 35 37 39 39 40 40 40 39 39 38 38 39 39 38 36 33 26 25 29 30 31 31 30 30 29 28 26 25 25 24 24 24 24
15 17 18 19 20 21 21 20 21 22 24 26 29 31 34 37 39 41 41 40 40 41 40 40 39 40 40 40 39 38 36 33 26 23 24 25 29 30 30 29 29 28 27 27 26 25 25 24 24
13 14 16 17 19 19 20 21 22 24 26 28 30 32 35 37 39 39 38 39 40 40 41 41 41 42 42 41 40 38 35 32 28 26 25 24 25 26 28 29 29 28 28 28 28 27 26 26 25
9 10 12 13 15 17 18 19 20 23 25 27 29 31 32 32 33 34 36 38 39 40 41 43 43 44 43 42 41 39 37 34 31 29 28 27 27 28 28 29 29 29 29 29 29 29 28 28 27
6 7 8 9 11 13 15 16 18 21 22 24 26 27 27 29 30 31 33 35 37 39 41 43 44 45 45 45 44 42 39 37 35 33 32 30 30 30 32 32 31 31 31 31 31 31 31 31 30
6 6 7 9 10 12 14 16 17 20 22 23 25 26 28 29 31 33 35 36 38 40 42 44 45 46 46 46 46 45 43 41 40 39 38 37 36 35 35 36 35 34 33 33 33 33 34 33 33
8 8 9 10 10 12 14 16 18 21 23 25 26 28 30 31 33 35 37 39 40 41 42 44 44 45 46 47 47 47 47 46 45 44 43 43 42 41 41 40 39 39 37 36 36 35 36 36 36
10 11 13 14 15 16 17 19 21 23 25 27 29 31 33 34 36 38 39 39 40 41 43 44 46 47 48 49 50 50 50 50 50 49 49 48 48 47 47 46 45 44 43 42 40 39 38 38 39
11 13 15 17 18 20 20 21 23 26 28 30 33 35 36 38 39 40 41 42 43 44 45 47 48 48 49 49 49 49 49 49 49 49 51 52 53 53 53 53 52 51 49 48 46 45 43 42 42
12 14 16 18 21 22 22 23 25 27 30 33 35 37 39 41 43 44 45 47 48 49 50 50 49 48 47 46 45 44 44 45 46 46 48 50 53 55 58 59 58 57 56 54 53 51 49 48 46
13 15 17 19 20 23 25 26 28 30 33 35 38 40 42 44 46 48 49 51 53 53 53 52 51 49 46 45 44 43 43 44 44 45 46 47 50 53 57 61 63 64 63 61 60 58 56 54 51
14 16 17 19 21 23 26 28 30 33 35 37 39 42 44 47 49 50 52 54 55 54 53 52 51 49 48 47 48 48 48 48 47 46 46 47 49 51 53 57 62 65 67 67 66 64 62 60 57
Wind_Direction
210 224 232 242 258 276 315 338 340 342 345 340 340 345 339 311 303 295 281 286 287 289 293 293 290 289 289 292 295 300 305 312 322 336 349 352 353 352 350 351 352 355 0 6 10 15 20 23 23
226 234 237 249 267 285 305 320 323 334 332 322 319 319 317 321 317 318 305 302 302 302 302 298 295 293 293 296 298 299 301 303 305 307 307 304 303 304 309 313 316 321 329 340 351 0 6 12 15
235 240 242 252 263 277 292 305 308 312 316 312 310 308 310 315 315 317 315 311 309 309 305 299 296 296 297 298 299 300 300 300 299 298 295 291 288 287 286 289 292 296 301 309 318 331 341 349 357
240 241 248 254 261 271 279 286 292 296 300 299 301 305 310 313 318 318 316 315 314 313 309 303 301 301 302 303 303 302 301 300 297 296 293 289 286 284 282 281 281 281 284 289 294 299 307 315 324
241 244 249 255 261 267 271 277 283 287 293 291 294 298 306 314 320 324 322 320 317 313 310 307 307 306 306 304 303 302 300 298 296 294 292 289 286 284 282 281 279 278 278 280 282 285 287 291 296
246 247 248 256 264 270 272 277 282 286 291 291 287 289 297 309 319 326 324 317 311 308 308 308 307 307 305 303 301 300 298 296 294 292 291 289 287 284 282 280 278 278 277 277 278 280 281 282 284
250 251 249 255 263 270 274 279 281 286 292 291 286 285 286 299 303 309 310 305 300 299 302 305 304 303 302 300 298 296 294 292 290 289 287 285 283 282 280 279 277 276 275 275 277 277 278 279 279
256 253 249 250 257 267 275 279 284 291 294 294 292 290 285 290 292 292 292 293 291 292 296 301 302 300 298 297 295 292 290 288 286 284 283 282 281 279 278 277 275 274 273 273 274 275 276 276 276
259 255 249 246 252 263 272 277 284 291 296 299 298 295 296 294 297 294 289 288 285 287 291 294 296 295 294 293 291 289 287 285 283 281 279 279 278 277 276 275 275 274 273 273 273 273 273 273 274
261 257 250 246 250 257 266 275 283 290 295 296 293 290 289 293 300 298 294 288 285 286 288 290 291 290 290 290 289 287 284 282 279 278 276 275 274 274 274 274 273 274 274 273 273 273 272 272 273
263 260 253 248 251 256 262 271 280 285 290 291 289 287 288 291 291 292 291 287 286 287 289 290 291 290 290 290 288 286 282 279 275 272 270 270 269 270 272 272 272 272 273 273 272 272 272 271 272
262 258 254 251 253 257 260 266 272 277 282 284 282 284 285 286 288 287 287 288 288 289 288 287 288 288 288 289 287 284 282 279 275 270 267 266 266 267 268 269 270 271 271 271 271 270 269 271 272
259 257 256 251 250 254 258 261 265 268 272 274 275 279 281 280 282 283 285 287 288 289 290 290 292 292 291 290 288 285 282 279 272 266 263 261 261 264 266 266 267 269 269 269 269 269 268 269 270
262 260 255 251 248 249 251 255 259 263 267 271 272 273 276 278 282 283 285 287 289 290 290 290 294 295 297 300 297 290 288 282 270 260 255 254 256 259 262 263 264 265 265 265 266 267 267 266 266
262 258 254 253 253 255 257 259 262 264 264 266 268 270 274 277 281 283 285 287 289 290 292 294 295 296 299 300 300 297 291 286 273 258 251 251 253 254 255 258 261 262 262 263 263 264 264 264 264
261 257 255 257 258 259 261 264 266 266 264 263 265 269 273 277 281 285 289 292 291 292 294 296 296 301 304 305 303 303 303 293 278 263 251 249 251 250 252 256 257 258 259 261 261 260 260 261 261
261 256 254 253 256 258 262 266 269 268 264 263 265 270 276 281 285 288 290 293 294 294 293 294 298 303 308 312 314 313 311 300 282 266 252 249 249 249 252 256 257 256 256 258 259 258 257 256 257
258 256 256 252 254 257 260 265 266 268 266 268 272 276 281 285 287 288 291 294 294 294 295 297 302 307 310 313 315 317 316 306 289 266 255 250 246 247 252 254 255 255 255 254 254 253 253 252 251
259 260 260 258 258 259 260 264 268 271 273 274 278 282 284 285 287 289 292 293 293 295 297 299 302 306 309 311 314 317 318 315 299 270 261 253 248 248 249 252 253 253 254 253 250 249 249 247 246
265 267 268 268 269 269 269 270 273 275 277 279 280 281 283 285 286 288 290 291 292 292 295 296 299 301 304 307 310 314 315 316 307 284 275 260 252 252 249 251 251 252 254 252 248 246 244 243 241
272 275 277 279 281 282 281 279 279 280 282 284 284 285 287 287 289 288 288 289 291 292 293 294 296 298 300 302 305 308 310 311 304 291 284 273 265 257 252 250 251 253 253 250 247 245 242 239 237
275 284 287 289 291 292 293 290 287 287 287 288 289 290 291 292 292 290 289 290 291 290 291 292 294 296 297 299 300 301 302 301 297 291 284 276 268 263 259 255 253 253 252 249 247 244 241 238 235
283 297 299 300 302 301 300 298 294 291 291 293 295 296 297 298 297 295 295 294 293 293 293 294 295 296 296 296 296 296 294 292 288 284 279 274 268 264 260 258 255 252 251 250 247 244 241 238 235
301 309 313 310 307 303 302 301 298 294 296 298 299 300 300 301 299 299 299 299 297 296 296 296 296 296 295 295 293 291 288 285 281 278 274 269 265 263 259 257 256 252 251 250 247 244 241 239 237
298 308 312 312 309 306 305 305 303 302 303 303 303 304 304 303 303 303 302 301 300 299 297 296 295 294 293 291 289 287 285 281 277 273 269 265 262 259 257 255 253 251 249 248 247 245 243 240 238
306 310 313 313 313 312 310 310 308 307 307 308 308 309 309 308 307 306 305 303 302 300 298 297 295 293 291 289 287 285 282 279 276 271 267 263 259 256 254 252 251 249 247 246 245 244 243 242 240
311 312 315 315 315 315 314 312 310 310 310 311 312 313 314 313 312 311 309 307 306 304 302 300 299 297 295 293 291 288 284 280 276 272 267 262 258 254 251 249 248 246 245 244 243 243 242 241 240
318 316 315 316 317 317 318 318 318 315 314 315 316 317 317 316 315 315 314 313 311 310 309 307 306 304 302 299 295 291 288 284 279 274 269 264 259 254 250 247 246 245 243 242 241 240 239 240 240
322 318 318 319 320 320 321 323 322 320 320 320 320 320 319 319 319 318 317 316 315 314 313 311 310 309 306 303 300 297 293 290 285 280 273 267 261 257 252 248 246 244 242 241 240 238 237 237 238
329 327 325 324 324 324 324 325 325 323 323 322 322 322 322 322 322 320 319 318 317 315 315 314 313 311 309 306 303 300 297 293 288 283 278 271 265 259 255 251 248 245 243 241 239 237 236 236 236
Height
5913 5913 5913 5913 5914 5913 5912 5912 5911 5911 5910 5910 5910 5909 5909 5909 5910 5912 5910 5908 5908 5908 5907 5907 5906 5906 5905 5904 5903 5902 5902 5901 5901 5900 5900 5900 5900 5900 5899 5899 5899 5899 5898 5898 5897 5896 5896 5895 5894
5913 5913 5914 5914 5913 5913 5913 5913 5912 5912 5911 5910 5910 5910 5909 5909 5909 5909 5908 5908 5907 5907 5906 5906 5905 5905 5904 5903 5902 5901 5901 5900 5900 5899 5899 5899 5899 5898 5898 5898 5898 5897 5897 5897 5896 5896 5896 5895 5894
5913 5913 5914 5914 5913 5913 5913 5913 5912 5912 5911 5910 5910 5910 5910 5909 5909 5908 5907 5907 5907 5906 5906 5905 5905 5904 5903 5902 5901 5901 5900 5899 5899 5898 5898 5898 5897 5897 5897 5896 5896 5896 5896 5895 5895 5895 5895 5895 5894
5912 5913 5913 5913 5912 5912 5912 5912 5911 5911 5911 5910 5909 5909 5909 5909 5908 5908 5907 5906 5906 5905 5905 5904 5903 5903 5902 5901 5900 5899 5899 5898 5897 5897 5897 5896 5896 5895 5895 5894 5894 5894 5893 5893 5893 5893 5893 5893 5893
5911 5911 5912 5911 5910 5910 5910 5910 5910 5910 5910 5909 5909 5909 5908 5908 5907 5907 5906 5905 5905 5905 5904 5903 5902 5901 5900 5899 5899 5898 5897 5896 5896 5895 5895 5894 5894 5893 5893 5892 5891 5891 5891 5891 5891 5891 5891 5891 5892
5909 5910 5910 5909 5908 5908 5908 5908 5908 5908 5908 5908 5908 5907 5907 5907 5906 5906 5905 5905 5904 5904 5903 5902 5901 5899 5898 5897 5896 5895 5895 5894 5893 5893 5892 5891 5891 5890 5889 5889 5888 5888 5887 5887 5887 5887 5888 5888 5889
5907 5907 5907 5907 5906 5905 5905 5905 5906 5906 5906 5906 5906 5906 5906 5906 5905 5905 5904 5904 5903 5902 5901 5900 5899 5898 5896 5895 5894 5893 5892 5891 5890 5889 5889 5888 5887 5886 5885 5885 5884 5884 5883 5883 5883 5883 5883 5884 5884
5903 5905 5904 5904 5903 5902 5902 5902 5903 5904 5904 5905 5904 5904 5904 5905 5904 5903 5903 5902 5901 5900 5899 5898 5896 5895 5894 5893 5891 5890 5889 5888 5886 5886 5885 5884 5883 5882 5881 5881 5880 5879 5879 5879 5879 5878 5878 5878 5879
5900 5902 5901 5900 5900 5899 5899 5899 5900 5901 5902 5902 5902 5902 5902 5902 5901 5901 5900 5899 5898 5897 5896 5894 5893 5891 5890 5888 5887 5885 5884 5883 5882 5881 5880 5879 5878 5877 5877 5876 5875 5875 5874 5874 5874 5873 5873 5873 5873
5896 5897 5898 5897 5896 5896 5896 5896 5897 5898 5899 5899 5899 5899 5899 5899 5898 5898 5897 5896 5894 5893 5891 5890 5888 5886 5884 5883 5881 5880 5878 5877 5876 5875 5874 5873 5872 5872 5871 5870 5870 5869 5869 5869 5868 5868 5867 5867 5867
5892 5893 5894 5893 5893 5893 5894 5894 5894 5894 5895 5895 5895 5895 5895 5895 5894 5894 5893 5891 5890 5888 5887 5885 5882 5880 5879 5877 5875 5873 5871 5870 5868 5867 5866 5866 5865 5865 5865 5864 5864 5864 5863 5863 5863 5862 5862 5861 5861
5888 5889 5889 5890 5890 5890 5890 5890 5889 5890 5891 5891 5891 5890 5890 5890 5889 5889 5888 5887 5885 5883 5881 5879 5876 5874 5872 5870 5868 5866 5864 5862 5860 5859 5858 5858 5858 5858 5857 5857 5858 5858 5857 5857 5857 5857 5856 5856 5855
5883 5885 5885 5886 5885 5884 5884 5885 5884 5885 5885 5885 5885 5885 5885 5884 5884 5884 5883 5882 5879 5877 5875 5872 5869 5866 5864 5862 5859 5857 5855 5853 5851 5850 5849 5848 5849 5850 5850 5850 5851 5851 5851 5851 5851 5851 5851 5851 5851
5879 5880 5880 5879 5878 5878 5878 5878 5878 5879 5880 5880 5879 5879 5878 5879 5879 5878 5877 5876 5874 5871 5868 5865 5862 5859 5855 5853 5850 5847 5845 5842 5840 5839 5839 5839 5840 5841 5841 5842 5843 5844 5844 5844 5844 5844 5845 5845 5845
5875 5875 5875 5874 5874 5874 5875 5874 5873 5874 5874 5874 5874 5874 5874 5874 5873 5873 5872 5870 5868 5864 5860 5857 5854 5851 5848 5844 5840 5837 5833 5829 5828 5827 5828 5829 5830 5831 5832 5833 5835 5836 5836 5837 5837 5838 5838 5839 5839
5870 5870 5870 5870 5870 5870 5872 5870 5870 5869 5870 5869 5869 5870 5869 5869 5868 5867 5865 5863 5861 5857 5854 5850 5846 5842 5839 5835 5830 5826 5822 5817 5815 5816 5817 5818 5819 5821 5823 5825 5826 5828 5829 5830 5830 5830 5831 5832 5833
5866 5866 5866 5866 5866 5867 5867 5866 5866 5865 5865 5865 5865 5865 5865 5863 5862 5861 5858 5856 5853 5849 5846 5843 5838 5835 5832 5827 5822 5818 5812 5806 5804 5804 5806 5808 5810 5812 5815 5816 5818 5820 5821 5822 5823 5824 5825 5826 5827
5862 5862 5862 5863 5863 5863 5863 5862 5862 5862 5862 5862 5861 5860 5859 5858 5856 5854 5851 5848 5845 5841 5838 5835 5831 5828 5825 5821 5817 5811 5805 5798 5795 5795 5798 5800 5802 5804 5806 5808 5810 5812 5814 5815 5816 5817 5818 5819 5821
5859 5859 5859 5859 5859 5859 5859 5859 5859 5859 5859 5858 5857 5855 5854 5851 5849 5847 5844 5841 5837 5834 5831 5827 5824 5821 5818 5815 5811 5806 5800 5794 5790 5790 5792 5792 5793 5795 5798 5801 5803 5805 5806 5808 5809 5810 5812 5813 5815
5857 5857 5856 5856 5855 5856 5855 5856 5856 5855 5854 5853 5851 5850 5847 5845 5842 5839 5836 5833 5829 5826 5823 5820 5817 5814 5811 5808 5804 5800 5796 5791 5787 5788 5787 5787 5789 5790 5792 5794 5796 5797 5799 5801 5802 5804 5805 5807 5808
5855 5854 5854 5853 5852 5852 5852 5852 5852 5851 5849 5847 5845 5843 5840 5837 5834 5831 5827 5824 5821 5818 5815 5812 5809 5806 5803 5800 5797 5794 5791 5788 5786 5785 5784 5784 5784 5785 5785 5787 5788 5790 5792 5793 5795 5797 5798 5800 5802
5853 5852 5852 5850 5850 5849 5849 5848 5848 5845 5844 5841 5839 5836 5833 5829 5826 5823 5820 5816 5813 5810 5807 5804 5801 5798 5795 5792 5789 5787 5784 5783 5781 5780 5779 5779 5779 5778 5779 5779 5781 5783 5784 5785 5787 5789 5791 5793 5795
5851 5851 5850 5849 5848 5847 5846 5845 5844 5841 5838 5836 5833 5830 5826 5823 5819 5816 5813 5809 5806 5802 5798 5795 5791 5788 5785 5782 5779 5777 5775 5774 5773 5772 5771 5771 5771 5770 5771 5772 5773 5774 5775 5776 5778 5780 5783 5785 5788
5850 5850 5849 5848 5847 5846 5844 5842 5840 5836 5834 5831 5828 5824 5821 5817 5814 5810 5806 5802 5797 5793 5789 5785 5781 5777 5773 5770 5767 5765 5763 5762 5762 5761 5761 5761 5761 5761 5761 5762 5763 5765 5766 5767 5769 5771 5774 5777 5779
5848 5848 5848 5846 5845 5843 5841 5839 5836 5832 5829 5826 5822 5818 5815 5811 5807 5802 5798 5793 5788 5783 5779 5774 5770 5765 5761 5757 5754 5751 5749 5748 5747 5747 5747 5747 5748 5749 5750 5750 5752 5754 5755 5757 5759 5762 5764 5767 5770
5846 5846 5845 5843 5841 5840 5837 5834 5832 5827 5823 5820 5816 5811 5807 5803 5798 5793 5788 5783 5778 5773 5767 5762 5757 5752 5747 5743 5739 5736 5734 5732 5731 5731 5731 5731 5732 5734 5735 5737 5739 5741 5743 5745 5748 5750 5753 5756 5760
5844 5843 5842 5840 5837 5835 5832 5830 5827 5822 5818 5814 5809 5804 5799 5793 5788 5782 5777 5771 5766 5760 5754 5748 5743 5737 5732 5727 5723 5719 5716 5714 5713 5712 5712 5712 5714 5716 5718 5720 5723 5726 5729 5732 5735 5738 5741 5744 5748
5842 5840 5838 5836 5833 5830 5828 5825 5822 5817 5812 5807 5802 5796 5790 5784 5777 5771 5764 5757 5751 5744 5738 5732 5726 5720 5715 5710 5706 5702 5699 5696 5694 5693 5693 5693 5694 5695 5697 5700 5704 5708 5712 5716 5720 5724 5727 5731 5735
5839 5837 5834 5832 5829 5826 5822 5822 5815 5810 5805 5799 5794 5787 5781 5774 5767 5759 5751 5743 5736 5729 5722 5715 5709 5704 5699 5695 5690 5686 5683 5679 5676 5675 5674 5673 5674 5674 5676 5679 5682 5687 5691 5697 5702 5707 5712 5716 5721
5836 5833 5831 5829 5826 5822 5818 5817 5809 5804 5798 5792 5786 5779 5771 5764 5755 5747 5739 5731 5723 5715 5708 5701 5695 5689 5684 5679 5675 5670 5666 5662 5659 5656 5654 5653 5653 5654 5655 5657 5660 5665 5670 5675 5681 5688 5694 5700 5705